Location: Bermeries
(50.2863°N, 3.7551°E)
Time: 10:41:55
(UTC+00:00)

Cosmos 1455 - Pass Details

Date: 23 May 2024
Orbit: 445 x 461 km, 82.5° (Epoch: 14 June)

Event Time Altitude Azimuth Distance (km) Brightness Sun altitude
Rises 02:00:55 0° 338° (NNW) 2,461 6.2 -12.7°
Reaches altitude 10° 02:03:17 10° 323° (NW) 1,585 4.9 -12.5°
Maximum altitude 02:06:01 22° 270° (W) 1,026 3.4 -12.2°
Enters shadow 02:07:18 18° 239° (WSW) 1,170 3.4 -12.1°
